DW8248 Weather Reports


Display with metric or nautical units.
time (UTC)temp
F
wind
direction
speed
MPH
gust
MPH
rain 1hr
in
rain 24hr
in
rain mn
in
humidity
%
barometer
mb
20181018084152 80 111 1.0 5.0 0.00 0.02 0.00 82 1020.0
20181018083140 80 118 1.0 5.0 0.00 0.02 0.00 83 1020.0
20181018082119 80 105 1.0 6.0 0.00 0.02 0.00 83 1020.1
20181018081042 80 109 2.0 6.0 0.00 0.02 0.00 83 1020.0
20181018080023 81 112 1.0 6.0 0.00 0.02 0.00 83 1020.0
20181018075022 81 86 2.0 6.0 0.00 0.02 0.00 82 1020.1
20181018073952 81 103 2.0 6.0 0.00 0.02 0.00 82 1020.1
20181018072923 81 123 2.0 6.0 0.00 0.02 0.00 82 1020.1
20181018071932 81 108 2.0 6.0 0.00 0.02 0.00 82 1020.1
20181018070955 81 114 2.0 7.0 0.00 0.02 0.00 82 1020.2
20181018065930 81 123 2.0 7.0 0.00 0.02 0.00 81 1020.3
20181018064922 81 118 3.0 7.0 0.00 0.02 0.00 82 1020.4
20181018063928 81 107 2.0 6.0 0.00 0.02 0.00 83 1020.4
20181018062924 81 96 2.0 6.0 0.00 0.02 0.00 83 1020.5
20181018061849 81 130 2.0 6.0 0.00 0.02 0.00 83 1020.5
20181018060854 81 105 2.0 6.0 0.00 0.02 0.00 83 1020.7
20181018055908 81 134 2.0 7.0 0.00 0.02 0.00 83 1020.7
20181018054855 81 98 3.0 7.0 0.00 0.02 0.00 83 1020.7
20181018053917 81 98 2.0 6.0 0.00 0.02 0.00 83 1020.7
20181018052904 81 96 2.0 8.0 0.00 0.02 0.00 83 1020.7
20181018051851 81 90 3.0 8.0 0.00 0.02 0.00 83 1020.8
20181018050852 81 127 3.0 7.0 0.00 0.02 0.00 83 1020.7
20181018045840 81 126 4.0 8.0 0.00 0.02 0.00 83 1020.8
20181018044827 81 121 4.0 8.0 0.00 0.02 0.00 83 1020.6
20181018043800 81 117 5.0 9.0 0.00 0.02 0.00 82 1020.6
20181018042733 81 124 4.0 9.0 0.00 0.02 0.00 82 1020.7
20181018041730 81 115 3.0 8.0 0.00 0.02 0.00 82 1020.8
20181018040739 81 150 4.0 8.0 0.00 0.02 0.00 82 1020.7
20181018035707 81 116 4.0 8.0 0.00 0.02 0.02 81 1020.7
20181018034708 81 108 3.0 8.0 0.00 0.02 0.02 81 1020.8
20181018033632 81 121 3.0 6.0 0.00 0.02 0.02 80 1020.8
20181018032640 81 130 3.0 8.0 0.00 0.02 0.02 79 1020.8
20181018031615 81 127 3.0 8.0 0.00 0.02 0.02 78 1020.8
20181018030623 81 109 2.0 7.0 0.00 0.02 0.02 80 1020.8
20181018025559 81 117 3.0 7.0 0.00 0.02 0.02 80 1020.8
20181018024537 81 99 2.0 7.0 0.00 0.02 0.02 81 1020.8
20181018023540 81 121 3.0 8.0 0.00 0.02 0.02 81 1020.8
20181018022542 81 121 4.0 8.0 0.00 0.02 0.02 81 1020.7
20181018021529 81 121 4.0 8.0 0.00 0.02 0.02 80 1020.6
20181018020534 81 101 3.0 8.0 0.00 0.02 0.02 81 1020.6
20181018015548 81 125 4.0 8.0 0.00 0.02 0.02 80 1020.5
20181018014514 81 128 3.0 9.0 0.00 0.02 0.02 80 1020.4
20181018013531 81 120 4.0 9.0 0.00 0.02 0.02 80 1020.5
20181018012503 81 118 4.0 9.0 0.00 0.02 0.02 80 1020.3
20181018011435 81 118 3.0 10.0 0.00 0.02 0.02 80 1020.3
20181018010415 81 149 4.0 10.0 0.00 0.02 0.02 80 1020.2
20181018005355 81 119 4.0 8.0 0.00 0.02 0.02 80 1020.2
20181018004406 81 142 4.0 8.0 0.00 0.02 0.02 81 1020.3
20181018003403 81 103 3.0 7.0 0.00 0.02 0.02 82 1020.1
20181018002419 81 105 4.0 7.0 0.00 0.02 0.02 81 1020.1
20181018001401 81 92 3.0 8.0 0.00 0.02 0.02 81 1020.1
20181018000351 81 100 3.0 8.0 0.00 0.02 0.02 81 1020.0
20181017235411 81 102 3.0 7.0 0.00 0.02 0.02 81 1019.9
20181017234407 81 106 3.0 7.0 0.00 0.02 0.02 81 1019.7
20181017233426 81 84 3.0 8.0 0.00 0.02 0.02 80 1019.6
20181017232427 81 98 3.0 8.0 0.00 0.02 0.02 80 1019.6
20181017231424 81 115 3.0 6.0 0.00 0.02 0.02 80 1019.6
20181017230411 82 84 3.0 8.0 0.00 0.02 0.02 81 1019.6
20181017225401 82 96 4.0 8.0 0.00 0.02 0.02 80 1019.5
20181017224339 82 108 4.0 8.0 0.00 0.02 0.02 80 1019.4
20181017223340 82 104 4.0 9.0 0.00 0.02 0.02 79 1019.3
20181017222309 83 112 3.0 9.0 0.00 0.02 0.02 78 1019.3
20181017221236 83 101 3.0 8.0 0.00 0.02 0.02 77 1019.2
20181017220202 83 111 5.0 9.0 0.00 0.02 0.02 77 1019.2
20181017215206 83 115 5.0 9.0 0.00 0.02 0.02 77 1019.3
20181017214211 83 113 4.0 8.0 0.00 0.02 0.02 77 1019.3
20181017213135 83 132 4.0 9.0 0.00 0.02 0.02 77 1019.3
20181017212115 83 105 4.0 8.0 0.00 0.02 0.02 77 1017.9
20181017211101 83 126 5.0 8.0 0.00 0.02 0.02 76 1017.9
20181017210045 83 124 5.0 10.0 0.00 0.02 0.02 76 1017.8
20181017205014 83 111 5.0 10.0 0.00 0.02 0.02 76 1017.9
20181017203952 84 135 5.0 9.0 0.00 0.02 0.02 75 1017.9
20181017202939 84 123 5.0 9.0 0.00 0.02 0.02 76 1018.0
20181017201906 84 132 5.0 11.0 0.00 0.02 0.02 75 1017.9
20181017200839 84 142 5.0 11.0 0.00 0.02 0.02 75 1018.0
20181017195814 84 101 4.0 11.0 0.00 0.02 0.02 74 1017.9
20181017194738 84 107 5.0 11.0 0.00 0.02 0.02 74 1017.9
20181017193737 84 92 4.0 8.0 0.00 0.02 0.02 73 1017.9
20181017192757 84 89 4.0 9.0 0.00 0.02 0.02 75 1018.0
20181017191817 84 69 4.0 9.0 0.00 0.02 0.02 74 1017.9
20181017190749 84 126 4.0 9.0 0.00 0.02 0.02 74 1017.9
20181017185712 84 85 4.0 9.0 0.00 0.02 0.02 75 1018.0
20181017184707 84 146 5.0 9.0 0.00 0.02 0.02 75 1017.9
20181017183649 84 115 5.0 10.0 0.00 0.02 0.02 74 1018.0
20181017182619 84 117 5.0 10.0 0.00 0.02 0.02 73 1018.1
20181017181637 84 140 5.0 9.0 0.00 0.02 0.02 73 1018.1
20181017180621 84 99 5.0 12.0 0.00 0.02 0.02 74 1018.2
20181017175630 84 109 6.0 12.0 0.00 0.02 0.02 74 1018.3
20181017174554 84 103 6.0 11.0 0.00 0.02 0.02 76 1018.4
20181017173531 84 140 6.0 12.0 0.00 0.02 0.02 74 1018.6
20181017172456 84 145 8.0 13.0 0.00 0.02 0.02 74 1018.7
20181017171455 84 157 8.0 13.0 0.00 0.02 0.02 75 1018.8
20181017170457 84 111 9.0 16.0 0.00 0.02 0.02 75 1019.0
20181017165516 84 141 9.0 16.0 0.00 0.02 0.02 75 1019.1
20181017164530 84 157 9.0 15.0 0.00 0.02 0.02 75 1019.1
20181017163542 84 126 8.0 15.0 0.00 0.02 0.02 77 1019.2
20181017162525 84 139 8.0 14.0 0.00 0.02 0.02 77 1019.2
20181017161506 84 121 8.0 14.0 0.00 0.02 0.02 78 1019.4
20181017160517 84 119 7.0 12.0 0.00 0.02 0.02 78 1019.5
20181017155518 84 138 7.0 12.0 0.00 0.02 0.02 77 1019.6
20181017154527 84 141 6.0 11.0 0.00 0.02 0.02 78 1019.6
20181017153450 84 142 6.0 10.0 0.00 0.02 0.02 77 1019.7
20181017152415 84 120 5.0 11.0 0.00 0.02 0.02 76 1019.7
20181017151347 84 128 7.0 11.0 0.00 0.02 0.02 74 1019.8
20181017150407 84 124 6.0 10.0 0.00 0.02 0.02 75 1019.7
20181017145423 84 113 6.0 11.0 0.00 0.02 0.02 74 1019.7
20181017144417 84 133 6.0 11.0 0.00 0.02 0.02 77 1019.7
20181017143411 84 130 5.0 10.0 0.00 0.02 0.02 76 1019.7
20181017142424 84 119 5.0 11.0 0.00 0.02 0.02 74 1019.7
20181017141403 84 131 5.0 11.0 0.00 0.02 0.02 77 1019.7
20181017140349 83 112 4.0 8.0 0.00 0.02 0.02 81 1019.7
20181017135347 83 126 4.0 9.0 0.00 0.02 0.02 82 1019.8
20181017134329 83 147 4.0 9.0 0.00 0.02 0.02 80 1019.6
20181017133317 83 122 5.0 9.0 0.00 0.02 0.02 79 1019.6
20181017132319 83 133 5.0 9.0 0.04 0.02 0.02 81 1019.5
20181017131312 82 111 4.0 9.0 0.05 0.02 0.02 85 1019.4
20181017130251 82 117 4.0 9.0 0.00 0.01 0.01 86 1019.2
20181017125253 82 111 3.0 8.0 0.00 0.00 0.00 84 1019.1
20181017124257 82 126 3.0 8.0 0.00 0.00 0.00 82 1019.1
20181017123239 82 109 3.0 7.0 0.00 0.00 0.00 80 1019.0
20181017122214 83 109 3.0 8.0 0.00 0.00 0.00 81 1018.8
20181017121209 82 134 3.0 8.0 0.00 0.00 0.00 82 1018.7
20181017120146 82 117 3.0 8.0 0.00 0.00 0.00 83 1018.7
20181017115123 81 136 3.0 8.0 0.00 0.00 0.00 83 1018.6
20181017114109 81 101 3.0 7.0 0.00 0.00 0.00 84 1018.5
20181017113058 81 125 4.0 8.0 0.00 0.00 0.00 84 1018.3
20181017112057 81 117 3.0 9.0 0.00 0.00 0.00 84 1018.2
20181017111054 81 96 4.0 9.0 0.00 0.00 0.00 84 1018.1
20181017110102 81 107 4.0 8.0 0.00 0.00 0.00 85 1018.1
20181017105032 81 122 4.0 9.0 0.00 0.00 0.00 85 1018.1
20181017104041 81 128 3.0 9.0 0.00 0.00 0.00 85 1018.0
20181017103047 81 124 3.0 7.0 0.00 0.00 0.00 85 1017.9
20181017102040 81 117 4.0 7.0 0.00 0.00 0.00 85 1017.8
20181017101024 81 91 3.0 7.0 0.00 0.00 0.00 84 1017.7
20181017100014 81 126 3.0 7.0 0.00 0.00 0.00 84 1017.7
20181017094957 81 106 3.0 8.0 0.00 0.00 0.00 84 1017.8
20181017093958 81 110 4.0 9.0 0.00 0.00 0.00 84 1017.7
20181017093000 81 114 4.0 9.0 0.00 0.00 0.00 85 1017.6
20181017091928 81 134 3.0 7.0 0.00 0.00 0.00 85 1017.6
20181017090921 81 128 3.0 7.0 0.00 0.00 0.00 84 1017.6
20181017085913 81 117 3.0 6.0 0.00 0.00 0.00 84 1017.5